Weather in Antsohihy

Madagascar     14°55′52″S   47°56′42″E
temp.,
°C
wind,
m/s
gust,
m/s
humid.,
%
clouds,
%
prec.,
mm/h
press.,
hPa
HPBL,
m
16 april, fri
fri1600:00+23nne019697 1.7 101212
03:00+23e119798 2.9 101114
06:00+23se119792 0.4 101211
09:00+27se118198 0.4 1013450
12:00+31wnw016463 0.1 10101289
15:00+28wnw238192 2.5 1009401
18:00+25nnw2292100 5.8 101130
21:00+24nnw129555 7.6 101333
17 april, sat
sat1700:00+23ne1196100 0.6 101213
03:00+23ne119799 0.6 101011
06:00+23ese1196100 0.0 101211
09:00+28ene11808 0.0 1013438
12:00+32wnw116246 0.0 10111263
15:00+32nw115949 0.1 10091362
18:00+25nw2693100 1.1 1012130
21:00+24nne229424 1.3 101434
18 april, sun
sun1800:00+23ese1198100 7.0 101435
03:00+23sse2696100 7.9 1012200
06:00+23se3993100 0.0 1014266
09:00+27se497888 0.0 1016749
12:00+29sse587085 0.3 10141239
15:00+25sse7128060 0.8 1013679
18:00+25se51277100 0.4 1014622
21:00+25se6126998 0.4 1016917
19 april, mon
mon1900:00+24sse5117342 0.0 1016830
03:00+24sse5107545 0.0 1015552
06:00+23sse5117699 0.0 1016814
09:00+25sse6117427 0.0 10171045
12:00+28se7116453 0.0 10141197
15:00+27sse7127114 0.0 1013996
18:00+24se5137319 0.0 1015790
21:00+24se5127345 0.0 1016822
20 april, tue
tue2000:00+24sse4117588 0.0 1015509
03:00+23sse5117691 0.0 1013555
06:00+24sse5127419 0.0 1014724
09:00+27se5106821 0.0 10141040
12:00+30ese6105855 0.0 10131500
15:00+28se610657 0.0 1011922
18:00+25se61368100 0.2 1012692
21:00+24se41268100 0.2 1014603